Miscellaneous Local Product
Issued by NWS Hastings, NE

Home | Current Version | Previous Version | Text Only | Print | Product List | Glossary On
Versions: 1 2 3 4 5 6 7 8 9 10 11 12 13 14 15 16 17 18 19 20 21 22 23 24 25 26 27 28 29 30 31 32 33 34 35 36 37 38 39 40 41 42 43 44 45 46 47 48 49 50
000
AXUS43 KGID 290702
MISGRI

GID CWA HOURLY WEATHER ROUNDUP
NATIONAL WEATHER SERVICE HASTINGS NE
200 AM CDT FRI MAY 29 2015

NOTE: "FAIR" INDICATES FEW OR NO CLOUDS BELOW 12,000 FEET WITH NO
SIGNIFICANT WEATHER AND/OR OBSTRUCTIONS TO VISIBILITY.

...SOUTH CENTRAL NEBRASKA...

CITY           SKY/WX    TMP DP  RH WIND       PRES   REMARKS
GRAND ISLAND   LGT RAIN  62  59  90 SW6       29.92S
HASTINGS       LGT RAIN  62  59  90 NW6       29.91F
KEARNEY        CLOUDY    61  55  82 W6        29.93R
ORD            CLOUDY    58  56  93 SW8       29.92R
YORK           CLOUDY    64  57  77 S6        29.93S
AURORA         LGT RAIN  62  61  96 CALM      29.92S
LEXINGTON      CLOUDY    59  56  91 W6        29.97S
HOLDREGE       CLOUDY    59  52  78 W6        29.94S
HEBRON         CLOUDY    62  59  90 CALM      29.89F

...NEBRASKA PANHANDLE...

CITY           SKY/WX    TMP DP  RH WIND       PRES   REMARKS
CHADRON        CLOUDY    54  52  93 SW6       30.04S
ALLIANCE       CLOUDY    54  53  97 NW8       30.03S
SCOTTSBLUFF    CLOUDY    54  52  93 W7        30.06F
SIDNEY         LGT RAIN  53  50  89 W10       30.07F

...WESTERN AND NORTH CENTRAL NEBRASKA...

CITY           SKY/WX    TMP DP  RH WIND       PRES   REMARKS
VALENTINE      CLOUDY    57  55  93 W12       29.94S
AINSWORTH      CLOUDY    59  57  91 NW8       29.92R
ONEILL         CLOUDY    61  59  94 CALM      29.86R
BROKEN BOW     CLOUDY    60  57  89 S5        29.94R
IMPERIAL       CLOUDY    55  51  86 NW3       30.00F
NORTH PLATTE   CLOUDY    57  53  86 VRB3      29.95F
MCCOOK         CLOUDY    57  54  89 W12       30.00R

...EASTERN NEBRASKA...

CITY           SKY/WX    TMP DP  RH WIND       PRES   REMARKS
NORFOLK        CLOUDY    67  62  84 S12       29.87S
SO SIOUX CITY  MOCLDY    67  62  84 SE7       29.88S
TEKAMAH        MOCLDY    65  63  93 S9        29.90S
COLUMBUS       CLOUDY    64  57  77 S6        29.91F
ALBION         CLOUDY    65  58  77 NW6       29.89S
OMAHA EPPLEY   CLOUDY    67  63  87 S14       29.92S
OFFUTT AFB     CLOUDY    66  64  90 SE9       29.91F
MILLARD        MOCLDY    67  64  89 SE9       29.92S
LINCOLN        LGT RAIN  67  65  93 S6        29.92F
NEBRASKA CITY  MOCLDY    65  64  95 S9        29.93F
BEATRICE       MOCLDY    65  59  79 SW8       29.94F
FALLS CITY     MOCLDY    66  62  87 S8        29.94S

...NORTHERN KANSAS...

CITY           SKY/WX    TMP DP  RH WIND       PRES   REMARKS
GOODLAND       CLOUDY    52  50  93 W3        30.05R
HILL CITY      CLOUDY    57  55  93 NW7       29.95F
NORTON         CLOUDY    57  50  77 W7        29.94S
SMITH CENTER   PTCLDY    59  57  94 E3        29.91F
HAYS           CLOUDY    61  52  72 W10       29.93R
RUSSELL        CLOUDY    63  57  81 NE8       29.92R
CONCORDIA      CLOUDY    61  59  93 S5        29.91R
SALINA         CLOUDY    65  59  81 CALM      29.91F
TOPEKA         CLOUDY    66  64  93 SE7       29.95F



USA.gov is the U.S. government's official web portal to all federal, state and local government web resources and services.